Location: Unspecified
(0.0000°N, 0.0000°E)
Time: 01:02:09
(UTC+01:00)

Ariane H10 - Visible Passes

Search period start: 20 November 2017 00:00
Search period end: 30 November 2017 00:00
Orbit: 528 x 34731 km, 7.2° (Epoch: 18 November)

Date Brightness Start Highest point End Pass type
(mag) Time Alt. Az. Time Alt. Az. Time Alt. Az.
21 Nov 6.8 03:47:00 56° W 03:55:41 89° S 13:20:29 10° E visible
22 Nov 8.1 00:21:09 16° E 00:21:09 16° E 00:27:26 10° E visible
22 Nov 10.9 04:33:38 10° E 07:47:50 27° E 09:15:06 10° E visible
22 Nov 4.2 20:24:21 10° W 20:30:20 37° SSW 20:31:11 32° SSE visible
24 Nov 6.9 03:46:33 55° W 03:55:54 90° N 13:20:03 10° E visible
25 Nov 8.1 00:20:43 17° E 00:20:43 17° E 00:28:58 10° E visible
25 Nov 10.8 04:18:56 10° E 07:47:13 28° E 09:16:49 10° E visible
25 Nov 4.2 20:24:11 10° WSW 20:29:41 35° S 20:30:33 30° SSE visible
27 Nov 7.0 03:46:07 55° W 03:56:09 89° N 13:19:33 10° E visible
28 Nov 8.1 00:20:16 19° E 00:20:16 19° E 00:30:45 10° E visible
28 Nov 10.8 04:04:10 10° E 07:46:36 30° E 09:18:14 10° E visible
28 Nov 4.2 20:23:55 10° WSW 20:28:59 33° S 20:29:54 28° SSE visible
